When you browse on this site, cookies collect data to enhance your experience and personalize the content and advertising you see.
Visit our Privacy Policy to learn more. By continuing to use the site, you agree to this use of cookies and data.
  • In Lithuania
  • List of Countries
  • For 7 days
  • Water Temperature
  • Satellite Maps
  • Weather Map
  • Weather Widgets
  • user-avatar
    Login

    Hourly Weather Barcelona

    Today, 20 February, Wednesday

    Time Temperature Precipitation Wind Pressure Humidity
    00:00 +27°C° 0 mm 5 mps 760 mmHg 71%
    01:00 +26°C° 0 mm 4 mps 760 mmHg 73%
    02:00 +26°C° 0 mm 4 mps 760 mmHg 75%
    03:00 +25°C° 0 mm 4 mps 760 mmHg 77%
    04:00 +25°C° 0 mm 3 mps 760 mmHg 79%
    05:00 +24°C° 0 mm 3 mps 760 mmHg 80%
    06:00 +26°C° 0 mm 3 mps 760 mmHg 74%
    07:00 +27°C° 0 mm 2 mps 760 mmHg 68%
    08:00 +28°C° 0 mm 2 mps 760 mmHg 62%
    09:00 +31°C° 0 mm 2 mps 761 mmHg 52%
    10:00 +36°C° 0 mm 2 mps 761 mmHg 42%
    11:00 +39°C° 0 mm 3 mps 761 mmHg 32%
    12:00 +38°C° 0 mm 4 mps 760 mmHg 32%
    13:00 +38°C° 0 mm 4 mps 759 mmHg 32%
    14:00 +39°C° 0 mm 5 mps 758 mmHg 32%
    15:00 +38°C° 0 mm 6 mps 758 mmHg 36%
    16:00 +35°C° 0 mm 6 mps 758 mmHg 40%
    17:00 +34°C° 0 mm 7 mps 757 mmHg 44%
    18:00 +33°C° 0 mm 7 mps 758 mmHg 50%
    19:00 +30°C° 0 mm 7 mps 758 mmHg 57%
    20:00 +28°C° 0 mm 7 mps 758 mmHg 63%
    21:00 +28°C° 0 mm 7 mps 759 mmHg 65%
    22:00 +28°C° 0 mm 6 mps 759 mmHg 67%
    23:00 +27°C° 0 mm 6 mps 760 mmHg 69%

    Tomorrow, 21 February, Thursday

    Time Temperature Precipitation Wind Pressure Humidity
    00:00 +27°C° 0 mm 5 mps 760 mmHg 71%
    01:00 +26°C° 0 mm 5 mps 759 mmHg 73%
    02:00 +26°C° 0 mm 4 mps 759 mmHg 75%
    03:00 +25°C° 0 mm 4 mps 759 mmHg 77%
    04:00 +25°C° 0 mm 3 mps 759 mmHg 79%
    05:00 +24°C° 0 mm 3 mps 759 mmHg 81%
    06:00 +26°C° 0 mm 2 mps 760 mmHg 75%
    07:00 +27°C° 0 mm 2 mps 760 mmHg 69%
    08:00 +29°C° 0 mm 1 mps 761 mmHg 63%
    09:00 +32°C° 0 mm 2 mps 761 mmHg 54%
    10:00 +36°C° 0 mm 2 mps 761 mmHg 44%
    11:00 +39°C° 0 mm 3 mps 762 mmHg 34%
    12:00 +38°C° 0 mm 4 mps 761 mmHg 36%
    13:00 +37°C° 0 mm 5 mps 760 mmHg 39%
    14:00 +36°C° 0 mm 6 mps 759 mmHg 41%
    15:00 +35°C° 0 mm 6 mps 758 mmHg 43%
    16:00 +35°C° 0 mm 7 mps 757 mmHg 44%
    17:00 +35°C° 0 mm 7 mps 757 mmHg 46%
    18:00 +33°C° 0 mm 7 mps 758 mmHg 52%
    19:00 +30°C° 0 mm 7 mps 758 mmHg 58%
    20:00 +29°C° 0 mm 7 mps 759 mmHg 64%
    21:00 +28°C° 0 mm 6 mps 759 mmHg 66%
    22:00 +28°C° 0 mm 5 mps 760 mmHg 69%
    23:00 +27°C° 0 mm 4 mps 760 mmHg 72%

    Day after tomorrow, 22 February, Friday

    Time Temperature Precipitation Wind Pressure Humidity
    00:00 +27°C° 0 mm 4 mps 760 mmHg 74%
    01:00 +26°C° 0 mm 4 mps 760 mmHg 76%
    02:00 +26°C° 0 mm 3 mps 759 mmHg 78%
    03:00 +25°C° 0 mm 3 mps 759 mmHg 79%
    04:00 +25°C° 0 mm 2 mps 759 mmHg 80%
    05:00 +25°C° 0 mm 2 mps 759 mmHg 81%
    06:00 +26°C° 0 mm 2 mps 760 mmHg 74%
    07:00 +27°C° 0 mm 1 mps 760 mmHg 68%
    08:00 +29°C° 0 mm 1 mps 761 mmHg 62%
    09:00 +32°C° 0 mm 1 mps 761 mmHg 51%
    10:00 +37°C° 0 mm 2 mps 761 mmHg 41%
    11:00 +40°C° 0 mm 2 mps 761 mmHg 30%
    12:00 +39°C° 0 mm 3 mps 761 mmHg 33%
    13:00 +39°C° 0 mm 5 mps 760 mmHg 36%
    14:00 +38°C° 0 mm 6 mps 759 mmHg 39%
    15:00 +36°C° 0 mm 6 mps 758 mmHg 40%
    16:00 +36°C° 0 mm 6 mps 758 mmHg 42%
    17:00 +35°C° 0 mm 7 mps 757 mmHg 44%
    18:00 +33°C° 0 mm 7 mps 758 mmHg 48%
    19:00 +32°C° 0 mm 6 mps 759 mmHg 52%
    20:00 +29°C° 0 mm 6 mps 759 mmHg 56%
    21:00 +28°C° 0 mm 6 mps 760 mmHg 60%
    22:00 +27°C° 0 mm 5 mps 760 mmHg 63%
    23:00 +27°C° 0 mm 4 mps 761 mmHg 67%

    23 February, Saturday

    Time Temperature Precipitation Wind Pressure Humidity
    00:00 +26°C° 0 mm 4 mps 761 mmHg 70%
    01:00 +25°C° 0 mm 3 mps 760 mmHg 73%
    02:00 +25°C° 0 mm 3 mps 760 mmHg 76%
    03:00 +24°C° 0 mm 3 mps 760 mmHg 77%
    04:00 +24°C° 0 mm 3 mps 760 mmHg 78%
    05:00 +23°C° 0 mm 2 mps 760 mmHg 79%
    06:00 +25°C° 0 mm 2 mps 761 mmHg 72%
    07:00 +26°C° 0 mm 2 mps 761 mmHg 65%
    08:00 +28°C° 0 mm 2 mps 762 mmHg 58%
    09:00 +32°C° 0 mm 2 mps 762 mmHg 47%
    10:00 +37°C° 0 mm 2 mps 762 mmHg 37%
    11:00 +40°C° 0 mm 3 mps 762 mmHg 26%
    12:00 +41°C° 0 mm 4 mps 761 mmHg 28%
    13:00 +40°C° 0 mm 5 mps 760 mmHg 29%
    14:00 +40°C° 0 mm 7 mps 759 mmHg 31%
    15:00 +38°C° 0 mm 7 mps 758 mmHg 36%
    16:00 +37°C° 0 mm 8 mps 758 mmHg 42%
    17:00 +35°C° 0 mm 8 mps 757 mmHg 47%
    18:00 +33°C° 0 mm 8 mps 758 mmHg 52%
    19:00 +32°C° 0 mm 8 mps 759 mmHg 58%
    20:00 +29°C° 0 mm 7 mps 759 mmHg 63%
    21:00 +29°C° 0 mm 7 mps 760 mmHg 66%
    22:00 +28°C° 0 mm 6 mps 760 mmHg 69%
    23:00 +28°C° 0 mm 6 mps 760 mmHg 71%

    24 February, Sunday

    Time Temperature Precipitation Wind Pressure Humidity
    00:00 +27°C° 0 mm 5 mps 760 mmHg 73%
    01:00 +26°C° 0 mm 5 mps 760 mmHg 76%
    02:00 +26°C° 0 mm 4 mps 759 mmHg 78%
    03:00 +25°C° 0 mm 3 mps 759 mmHg 79%
    04:00 +24°C° 0 mm 3 mps 759 mmHg 81%
    05:00 +24°C° 0 mm 2 mps 759 mmHg 82%
    06:00 +25°C° 0 mm 2 mps 760 mmHg 75%
    07:00 +27°C° 0 mm 1 mps 760 mmHg 68%
    08:00 +28°C° 0 mm 1 mps 761 mmHg 60%
    09:00 +31°C° 0 mm 2 mps 761 mmHg 52%
    10:00 +36°C° 0 mm 3 mps 761 mmHg 43%
    11:00 +39°C° 0 mm 3 mps 761 mmHg 34%
    12:00 +37°C° 0 mm 4 mps 760 mmHg 41%
    13:00 +35°C° 0 mm 4 mps 759 mmHg 48%
    14:00 +33°C° 0 mm 5 mps 758 mmHg 55%
    15:00 +33°C° 0 mm 5 mps 758 mmHg 54%
    16:00 +33°C° 0 mm 6 mps 757 mmHg 53%
    17:00 +34°C° 0 mm 6 mps 757 mmHg 53%
    18:00 +32°C° 0 mm 6 mps 757 mmHg 59%
    19:00 +30°C° 0 mm 6 mps 758 mmHg 66%
    20:00 +28°C° 0 mm 6 mps 758 mmHg 72%
    21:00 +28°C° 0 mm 6 mps 759 mmHg 74%
    22:00 +27°C° 0 mm 6 mps 759 mmHg 76%
    23:00 +27°C° 0 mm 5 mps 759 mmHg 77%

    25 February, Monday

    Time Temperature Precipitation Wind Pressure Humidity
    00:00 +27°C° 0 mm 5 mps 759 mmHg 78%
    01:00 +26°C° 0 mm 4 mps 759 mmHg 79%
    02:00 +26°C° 0 mm 4 mps 758 mmHg 81%
    03:00 +26°C° 0 mm 3 mps 758 mmHg 81%
    04:00 +25°C° 0 mm 3 mps 759 mmHg 82%
    05:00 +25°C° 0 mm 3 mps 759 mmHg 83%
    06:00 +26°C° 0 mm 2 mps 759 mmHg 76%
    07:00 +28°C° 0 mm 2 mps 760 mmHg 70%
    08:00 +29°C° 0 mm 1 mps 760 mmHg 64%
    09:00 +32°C° 0 mm 2 mps 761 mmHg 54%
    10:00 +36°C° 0 mm 2 mps 761 mmHg 44%
    11:00 +40°C° 0 mm 3 mps 761 mmHg 33%
    12:00 +37°C° 0 mm 3 mps 760 mmHg 40%
    13:00 +35°C° 0 mm 4 mps 759 mmHg 46%
    14:00 +33°C° 0 mm 5 mps 758 mmHg 52%
    15:00 +33°C° 0 mm 5 mps 758 mmHg 52%
    16:00 +34°C° 0 mm 6 mps 757 mmHg 52%
    17:00 +34°C° 0 mm 6 mps 757 mmHg 52%
    18:00 +32°C° 0 mm 6 mps 758 mmHg 59%
    19:00 +30°C° 0 mm 6 mps 758 mmHg 67%
    20:00 +28°C° 0 mm 7 mps 758 mmHg 74%
    21:00 +28°C° 0 mm 6 mps 759 mmHg 76%
    22:00 +27°C° 0 mm 6 mps 759 mmHg 77%
    23:00 +27°C° 0 mm 5 mps 760 mmHg 79%
    Show more